Hutchinson, MN

3:09 AM CDT on April 25, 2017 (GMT -0500)
Hutchinson Municipal-Butler

Weather History for KHCD - April, 2014

Change the Weather History Date:

Tuesday, April 1, 2014

  Actual Average Record
Temperature  
Mean Temperature 26 °F -  
Max Temperature 33 °F 48 °F 81 °F (2015)
Min Temperature 20 °F 28 °F 4 °F (1975)
Degree Days  
Heating Degree Days 38    
Moisture  
Dew Point 22 °F    
Average Humidity 84    
Maximum Humidity 99    
Minimum Humidity 77    
Precipitation  
Precipitation 0.00 in - - ()
Sea Level Pressure  
Sea Level Pressure 29.88 in    
Wind  
Wind Speed 18 mph (WNW)    
Max Wind Speed 32 mph    
Max Gust Speed 43 mph    
Visibility 9 miles    
Events Snow    
Averages and records for this station are not official NWS values.
T = Trace of Precipitation, MM = Missing Value Source: NWS Daily Summary

Daily Weather History Graph

Daily Weather History Graph

Search for Another Location

Airport or City:

Trip Planner

Search our weather history database for the weather conditions in past years. The results will help you decide how hot, cold, wet, or windy it might be!

Date:

Astronomy

Apr. 01, 2014 Rise Set
Actual Time 6:58 AM CDT 7:45 PM CDT
Civil Twilight 6:28 AM CDT 8:14 PM CDT
Nautical Twilight 5:53 AM CDT 8:50 PM CDT
Astronomical Twilight 5:16 AM CDT 9:27 PM CDT
Moon 7:56 AM CDT (4/1) 10:15 PM CDT (4/1)
Length of Visible Light 13h 46m
Length of Day
12h 47m
Waxing Crescent, 5% of the Moon is Illuminated
Apr 1
Waxing Crescent
Apr 7
First Quarter
Apr 15
Full
Apr 22
Last Quarter
Apr 29
New

Hourly Weather History & Observations

Time (CDT) Temp. Windchill Dew Point Humidity Pressure Visibility Wind Dir Wind Speed Gust Speed Precip Events Conditions
12:13 AM 32.4 °F 27.9 °F 32.0 °F 99% 29.40 in 7.0 mi NNW 4.6 mph - N/A   Overcast
12:33 AM 32.4 °F 26.0 °F 32.0 °F 99% 29.42 in 7.0 mi West 6.9 mph - N/A   Overcast
12:53 AM 32.9 °F 25.9 °F 32.0 °F 96% 29.43 in 7.0 mi West 8.1 mph - N/A   Overcast
1:13 AM 33.8 °F 20.5 °F 32.7 °F 96% 29.45 in 3.0 mi WNW 27.6 mph 36.8 mph N/A   Heavy Drizzle
1:33 AM 31.3 °F 18.2 °F 30.0 °F 95% 29.48 in 3.0 mi WNW 23.0 mph 38.0 mph N/A Snow Light Snow
1:53 AM 29.1 °F 13.2 °F 27.5 °F 94% 29.50 in 4.0 mi WNW 32.2 mph 42.6 mph N/A   Overcast
2:13 AM 27.3 °F 11.5 °F 25.3 °F 92% 29.53 in 5.0 mi WNW 28.8 mph 38.0 mph N/A   Overcast
2:33 AM 26.6 °F 11.7 °F 24.6 °F 92% 29.55 in 5.0 mi WNW 24.2 mph 34.5 mph N/A   Overcast
2:53 AM 26.2 °F 10.9 °F 22.8 °F 87% 29.57 in 10.0 mi WNW 25.3 mph 35.7 mph N/A   Overcast
3:13 AM 25.0 °F 9.2 °F 21.2 °F 86% 29.59 in 10.0 mi WNW 25.3 mph 36.8 mph N/A   Overcast
3:33 AM 24.4 °F 8.2 °F 20.3 °F 84% 29.60 in 10.0 mi WNW 26.5 mph 41.4 mph N/A   Overcast
3:53 AM 24.3 °F 8.3 °F 20.3 °F 85% 29.61 in 10.0 mi NW 25.3 mph 36.8 mph N/A   Overcast
4:13 AM 23.7 °F 8.2 °F 19.8 °F 85% 29.63 in 10.0 mi WNW 23.0 mph 31.1 mph N/A   Overcast
4:33 AM 22.8 °F 5.7 °F 18.7 °F 84% 29.65 in 10.0 mi WNW 27.6 mph 36.8 mph N/A   Overcast
4:52 AM 22.1 °F 5.7 °F 17.8 °F 83% 29.67 in 10.0 mi WNW 24.2 mph 34.5 mph N/A   Overcast
5:13 AM 21.6 °F 5.7 °F 18.0 °F 86% 29.68 in 3.0 mi WNW 21.9 mph 32.2 mph N/A Snow Light Snow
5:33 AM 20.8 °F 3.1 °F 16.5 °F 83% 29.70 in 5.0 mi WNW 27.6 mph 34.5 mph N/A Snow Light Snow
5:53 AM 21.0 °F 6.6 °F 16.2 °F 81% 29.73 in 10.0 mi NW 17.3 mph 34.5 mph N/A   Overcast
6:13 AM 21.0 °F 4.6 °F 16.5 °F 83% 29.75 in 7.0 mi WNW 23.0 mph 34.5 mph N/A Snow Light Snow
6:33 AM 20.8 °F 4.4 °F 16.7 °F 84% 29.76 in 5.0 mi WNW 23.0 mph 33.4 mph N/A Snow Light Snow
6:53 AM 20.7 °F 4.1 °F 16.3 °F 83% 29.78 in 7.0 mi NW 23.0 mph 36.8 mph N/A   Overcast
7:13 AM 20.8 °F 5.5 °F 16.7 °F 84% 29.80 in 4.0 mi WNW 19.6 mph 29.9 mph N/A Snow Light Snow
7:33 AM 20.7 °F 3.5 °F 17.2 °F 87% 29.81 in 1.2 mi WNW 25.3 mph 31.1 mph N/A Snow Light Snow
7:53 AM 20.3 °F 4.8 °F 17.1 °F 87% 29.82 in 1.5 mi WNW 19.6 mph 27.6 mph N/A Snow Light Snow
8:13 AM 20.7 °F 4.5 °F 17.1 °F 86% 29.83 in 3.0 mi WNW 21.9 mph 28.8 mph N/A Snow Light Snow
8:33 AM 20.8 °F 4.0 °F 16.3 °F 83% 29.84 in 10.0 mi WNW 24.2 mph 28.8 mph N/A   Mostly Cloudy
8:53 AM 21.9 °F 7.3 °F 16.7 °F 80% 29.85 in 10.0 mi WNW 18.4 mph 26.5 mph N/A   Mostly Cloudy
9:13 AM 23.0 °F 8.0 °F 17.8 °F 80% 29.86 in 10.0 mi WNW 20.7 mph 26.5 mph N/A   Mostly Cloudy
9:33 AM 23.4 °F 8.8 °F 18.1 °F 80% 29.88 in 10.0 mi West 19.6 mph 26.5 mph N/A   Overcast
9:53 AM 23.5 °F 9.0 °F 18.3 °F 80% 29.89 in 10.0 mi WNW 19.6 mph 25.3 mph N/A   Mostly Cloudy
10:13 AM 23.0 °F 8.0 °F 18.1 °F 82% 29.90 in 10.0 mi West 20.7 mph - N/A   Mostly Cloudy
10:33 AM 23.7 °F 8.9 °F 18.9 °F 82% 29.92 in 10.0 mi West 20.7 mph 27.6 mph N/A   Overcast
10:53 AM 24.3 °F 10.0 °F 18.3 °F 78% 29.93 in 10.0 mi West 19.6 mph 26.5 mph N/A   Mostly Cloudy
11:13 AM 24.8 °F 10.3 °F 19.2 °F 79% 29.95 in 10.0 mi West 20.7 mph 28.8 mph N/A   Mostly Cloudy
11:33 AM 25.2 °F 11.2 °F 19.8 °F 80% 29.95 in 10.0 mi West 19.6 mph 27.6 mph N/A   Mostly Cloudy
11:53 AM 25.3 °F 11.0 °F 20.1 °F 81% 29.96 in 10.0 mi West 20.7 mph 26.5 mph N/A   Mostly Cloudy
12:12 PM 25.5 °F 12.4 °F 20.3 °F 81% 29.97 in 10.0 mi WNW 17.3 mph 24.2 mph N/A   Mostly Cloudy
12:33 PM 26.8 °F 13.3 °F 21.2 °F 79% 29.95 in 10.0 mi WNW 19.6 mph 25.3 mph N/A   Mostly Cloudy
12:53 PM 27.0 °F 14.3 °F 21.6 °F 80% 29.97 in 10.0 mi WNW 17.3 mph 25.3 mph N/A   Mostly Cloudy
1:13 PM 27.1 °F 14.5 °F 21.4 °F 79% 29.97 in 10.0 mi WNW 17.3 mph 23.0 mph N/A   Mostly Cloudy
1:33 PM 28.9 °F 16.5 °F 23.0 °F 78% 29.98 in 10.0 mi WNW 18.4 mph 26.5 mph N/A   Mostly Cloudy
1:53 PM 29.3 °F 16.6 °F 23.0 °F 77% 29.98 in 10.0 mi West 19.6 mph 24.2 mph N/A   Mostly Cloudy
2:12 PM 29.1 °F 16.7 °F 23.4 °F 79% 29.99 in 10.0 mi West 18.4 mph - N/A   Overcast
2:33 PM 30.2 °F 17.8 °F 25.2 °F 82% 29.99 in 10.0 mi West 19.6 mph - N/A   Overcast
2:53 PM 30.2 °F 17.4 °F 24.8 °F 80% 29.99 in 10.0 mi West 20.7 mph 25.3 mph N/A   Overcast
3:13 PM 31.1 °F 20.5 °F 25.9 °F 81% 29.99 in 10.0 mi WNW 15.0 mph 23.0 mph N/A   Overcast
3:33 PM 31.6 °F 20.4 °F 26.4 °F 81% 30.00 in 10.0 mi West 17.3 mph - N/A   Overcast
3:53 PM 31.3 °F 19.9 °F 25.5 °F 79% 30.00 in 10.0 mi WNW 17.3 mph - N/A   Overcast
4:13 PM 31.5 °F 19.8 °F 26.1 °F 80% 30.00 in 10.0 mi West 18.4 mph 21.9 mph N/A   Mostly Cloudy
4:33 PM 31.6 °F 20.0 °F 27.0 °F 83% 30.00 in 10.0 mi West 18.4 mph 23.0 mph N/A   Overcast
4:53 PM 31.8 °F 20.6 °F 26.4 °F 80% 30.01 in 10.0 mi West 17.3 mph 23.0 mph N/A   Mostly Cloudy
5:13 PM 32.0 °F 21.6 °F 26.2 °F 79% 30.01 in 10.0 mi WNW 15.0 mph - N/A   Scattered Clouds
5:33 PM 32.2 °F 22.3 °F 26.8 °F 80% 30.02 in 10.0 mi WNW 13.8 mph - N/A   Scattered Clouds
5:53 PM 32.4 °F 22.1 °F 26.8 °F 80% 30.03 in 10.0 mi WNW 15.0 mph 20.7 mph N/A   Clear
6:13 PM 32.0 °F 21.2 °F 26.4 °F 80% 30.04 in 10.0 mi West 16.1 mph - N/A   Scattered Clouds
6:33 PM 31.3 °F 20.7 °F 25.7 °F 80% 30.05 in 10.0 mi West 15.0 mph - N/A   Scattered Clouds
6:53 PM 31.1 °F 21.4 °F 26.1 °F 82% 30.06 in 10.0 mi West 12.7 mph - N/A   Clear
7:13 PM 30.6 °F 20.7 °F 25.5 °F 82% 30.07 in 10.0 mi West 12.7 mph - N/A   Clear
7:33 PM 30.0 °F 20.0 °F 26.1 °F 85% 30.07 in 10.0 mi West 12.7 mph 18.4 mph N/A   Clear
7:53 PM 29.3 °F 19.6 °F 25.3 °F 85% 30.08 in 10.0 mi West 11.5 mph - N/A   Clear
8:13 PM 29.1 °F 20.0 °F 25.0 °F 85% 30.08 in 10.0 mi WNW 10.4 mph - N/A   Clear
8:33 PM 28.8 °F 19.0 °F 24.4 °F 84% 30.09 in 10.0 mi West 11.5 mph - N/A   Clear
8:53 PM 28.4 °F 19.1 °F 24.3 °F 84% 30.10 in 10.0 mi WNW 10.4 mph - N/A   Clear
9:13 PM 28.0 °F 17.5 °F 23.5 °F 83% 30.10 in 10.0 mi WNW 12.7 mph - N/A   Clear
9:33 PM 27.5 °F 16.3 °F 23.5 °F 85% 30.11 in 10.0 mi WNW 13.8 mph - N/A   Clear
9:53 PM 27.3 °F 17.7 °F 22.8 °F 83% 30.11 in 10.0 mi WNW 10.4 mph - N/A   Clear
10:13 PM 27.0 °F 17.3 °F 23.0 °F 85% 30.11 in 10.0 mi WNW 10.4 mph - N/A   Clear
10:33 PM 26.6 °F 17.5 °F 22.1 °F 83% 30.11 in 10.0 mi WNW 9.2 mph - N/A   Clear
10:53 PM 26.2 °F 17.8 °F 22.1 °F 84% 30.11 in 10.0 mi WNW 8.1 mph - N/A   Clear
11:13 PM 26.2 °F 18.6 °F 22.6 °F 86% 30.12 in 10.0 mi WNW 6.9 mph - N/A   Clear
11:33 PM 25.7 °F 19.0 °F 21.9 °F 86% 30.13 in 10.0 mi NW 5.8 mph - N/A   Clear
11:53 PM 25.7 °F 17.1 °F 21.6 °F 84% 30.13 in 10.0 mi NW 8.1 mph - N/A   Clear